Terminal Aerodrome Forecast
Issued by NWS

Home | Current Version | Previous Version | Text Only | Print | Product List | Glossary On
Versions: 1 2 3 4 5 6 7 8 9 10 11 12 13 14 15 16
000
FTUS42 TJSJ 302300 RRA
TAFKPK
TAF
TKPK 302341Z 3100/3124 08007KT P6SM VCSH SCT020
     FM311300 11013KT P6SM SCT025
      AMD NOT SKED 3102/3111=

USA.gov is the U.S. government's official web portal to all federal, state and local government web resources and services.